Timeline UpdatesTrip UpdatesNews PostsPvt PostsTravel TipsAdmin PostsConv PostsFollowed PostsChat RequestsBlog PostsPNR Posts

Disclaimer
Search
 
 
Wed Jul 30, 2014 10:33:40 ISTHomeTrainsΣChainsAtlasPNRForumGalleryNewsFAQTripsMembersLoginFeedback
No Recent News for this Train
Other Trains in the News **new
Latest...
.
Fri May 09, 2014 (11:38PM)
⇐ Return Journey: Train# 22852

22851/Santragachi - Mangalore (Vivek) Express

May 09 2014 (11:39PM)
Change Departure Station:
Change Arrival Station:
Post a Train Travel TipPost a Train Travel Tip **new
Post a Comment/Question/Picture/VideoPost a Comment/Question/Picture/Video
Inaugural Run
Sun Feb 19, 2012
Pantry/Catering
✕ NO Pantry Car
✓ Catering Avbl
Loco/Rake Reversals
VSKP/Visakhapatnam Junction (8);
RSA - Rake Sharing
Rake/Coach Composition
SRC-VSKP : Loco-SLR-GS-S1-S2-S3-S4-S5-S6-S7-S8-S9-S10-B1-B2-B3-A1-GS-GS-SLR; VSKP-MAQ : Loco-SLR-GS-GS-A1-B3-B2-B1-S10-S9-S8-S7-S6-S5-S4-S3-S2-S1-GS-SLR.; CC updated as per Entry#613114
Loco
SRC - VSKP :- WAM-4 / WAP-4 VSKP - SRR :-...
Read more...
WAM-4 / WAP-4 SRR - MAQ :- WDM-3A / WDM-3D
News    PNR    Forum    Time-Table    Availability    Fare Chart    Map    Arr/Dep History    Trips    Gallery    ΣChains    X/O    Timeline    
Travel Time: 41h 35m    37 halts    Distance: 2488 km    Avg Speed: 59 km/hr
Type: SuperFast
Zone: SER/South Eastern
Departs @ 16:05 (Avg 1m late)
Platform# 2
    T  
Kolkata Santragachi Junction/SRC 
Arrives @ 09:40 +2 nights (Avg 1h 17m late)
Platform# ???
      S
Mangalore Central/MAQ 

37 halts. 414 intermediate Stations between Kolkata Santragachi Junction and Mangalore Central

Hide intermediate Stations  Show Old Time-Table

#CodeStation NameX/OArrivesAvgDepartsAvgHaltPFDay#KmSpeedElevZoneAddress
1SRC»Kolkata Santragachi Junction (6)»  -16:05+1210.0767mSERDist: Howrah - 711104, West Bengal
1.1MRGMMaurigram (3)  16:07-16:07-  13.0 768mSERDist - Howrah, West Bengal
1.2ADLAndul (5)  16:09-16:09-  14.7 7610mSERPin: 711302, West Bengal
1.3SELSankrail (4)  16:12-16:12-  18.3 760mSERSankrail, West Bengal
1.4ABBAbada (3)  16:13-16:13-  110.3 767mSERPin: 711313, West Bengal
1.5NALRNalpur (4)  16:15-16:15-  112.8 765mSERHowrah, West Bengal
1.6BVABauria Junction  16:18-16:18-  116.5 767mSERHowrah, West Bengal
1.7CGAChengel (5)  16:21-16:21-  119.6 768mSERNational Highway 6, West Bengal
1.8FLRPhuleswar  16:23-16:23-  122.2 7610mSERHowrah, West Bengal
1.9ULBUluberia (6)  16:25-16:25-  124.7 7610mSERdist - howrah, West Bengal
1.10BSBPBir Shibpur (4)  16:28-16:28-  128.7 765mSERDist: Howrah, West Bengal
1.11KGYKulgachiaX  16:30-16:30-  132.2 767mSERHowrah, West Bengal
1.12BZNBagnan (4)  16:35-16:35-  137.6 768mSERBagnan, West Bengal
1.13GGTAGhoraghata (2)X  16:37-16:37-  140.3 768mSERGraghata Station, West Bengal
1.14DTEDeulti  16:39-16:39-  143.4 769mSERDeulty, West Bengal
1.15QGTKolaghat (3)  16:43-16:43-  147.6 7611mSERNational Highway 6, West Bengal
1.16MCAMecheda (6)  16:45-16:45-  150.8 7610mSERdist - purba Medinipur, West Bengal
1.17NDGJNandaigajan P.H. (2)O  16:48-16:48-  153.8 767mSERNH41, West Bengal
1.18BOPBhogpur  16:49-16:49-  156.1 767mSERMedinipur, West Bengal
1.19PKEOPanskura East Outer  16:51-16:51-  158.8 764mSERPanskura, West Bengal
1.20NPMRNarayan Pakuria Murail (2)  16:52-16:52-  159.8 764mSERPanskura- 721171, West Bengal
1.21PKUPanskura Junction (6)  16:55-16:55-  163.2 769mSERPanskura, West Bengal
1.22KHAIKhirai (3)  16:59-16:59-  168.3 7611mSERPaschim Medinipur, West Bengal
1.23HAURHaur (4)X  17:02-17:02-  172.8 7612mSERMedinipur, West Bengal
1.24RDURadhamohanpur (2)  17:06-17:06-  177.1 7617mSERDist: West Medinipur, West Bengal
1.25DUANDuan (2)  17:08-17:08-  180.3 7617mSERDist: West Medinipur, West Bengal
1.26BCKBalichak (4)  17:11-17:11-  183.4 7621mSERKharagpur, West Bengal
1.27SMCKShyam Chak (4)X  17:15-17:15-  188.8 7620mSERDist: West Medinipur, West Bengal
1.28MPDMadpur (4)O  17:20-17:20-  194.7 7627mSERKharagpur, West Bengal
1.29JPRJakpur (4)  17:24-17:24-  1100.5 7628mSERJakpur, West Bengal
2KGPKharagpur Junction (10)X  17:30+817:35+85m--1107.68842mSERKharagpur, West Bengal
2.1HIJHijli (2)  17:38-17:38-  1111.4 8848mSERdist - paschim medinipur, West Bengal
2.2BPEBenapurX  17:43-17:43-  1119.5 8835mSERNational Highway 60, West Bengal
2.3NYANarayangarh (4)  17:51-17:51-  1130.6 8824mSERKasba Narayangarh, West Bengal
2.4VKDBakhrabad  17:55-17:55-  1137.1 8815mSERMedinipur, West Bengal
2.5CNTContai Road  17:59-17:59-  1143.0 8824mSERDist - Pashim medinipur, West Bengal
2.6BLDABelda  17:59-17:59-  1143.1 8824mSERDistrict Paschim Medinipur, West Bengal
2.7NSINekurseni (3)  18:05-18:05-  1151.1 8824mSERNikursini, West Bengal
2.8DNTDantan  18:11-18:11-  1159.7 8819mSERNational Highway 60, West Bengal
2.9AGVAnguaX  18:14-18:14-  1164.1 8817mSERWest Medinipore, West Bengal
2.10LXDLakshannath Road  18:18-18:18-  1170.1 8817mSERDist. Balasore, Odisha
3JERJaleswar (4)  18:22+718:23+81m--1176.26813mSERJaleswar, Odisha
3.1RGTRajghat Halt  18:30-18:30-  1183.9 6817mSERRajghat, Odisha
3.2ARDAmarda Road  18:35-18:35-  1190.3 6811mSERAmarda Road, Odisha
3.3BTSBasta (3)  18:40-18:40-  1195.6 6816mSERBasta, Odisha
3.4NMBRN Mayurbhanj RoadX  18:44-18:44-  1200.4 6811mSERBaleswar, Odisha
3.5ROPRupsa Junction (5)X  18:49-18:49-  1205.8 6813mSERRupsa, Odisha
3.6HIPHaldipada  18:55-18:55-  1211.9 689mSERHaldipada, Odisha
3.7TKPLTikirapal Halt  19:01-19:01-  1218.7 688mSERBaleswar, Odisha
4BLSBalasore (4)X  19:05+819:07+92m--1223.67519mSERBalasore, Odisha
4.1NGRDNilgiri Road  19:16-19:16-  1234.3 7514mSERBaleswar, Odisha
4.2KHFKhantapara  19:19-19:19-  1239.1 7515mSERKhantaparha, Odisha
4.3PNPNPanpana  19:23-19:23-  1244.1 7515mSERKhantaparha, Odisha
4.4BNBRBahanaga Bazar  19:27-19:27-  1248.5 7519mSERBalasore Distt., Odisha
4.5SOROSoro  19:34-19:34-  1257.1 7514mSERSoro, Odisha
4.6SZZSabiraX  19:41-19:41-  1265.8 7514mSERNational Highway 5, Odisha
4.7MKOMarkona  19:46-19:46-  1271.9 7518mSERMarkuna, Odisha
4.8RNTLRanitalO  19:51-19:51-  1278.3 7522mSERBhadrak, Odisha
4.9BHCBhadrak (4)X  19:57-19:57-  1286.1 7523mECoRBhadrak, Odisha
4.10BUDRBaudpur  20:02-20:02-  1292.5 7521mECoRBhadrak, Odisha
4.11KPLDKapali Road  20:06-20:06-  1296.9 7520mECoRKantia, Odisha
4.12KEDKenduapada  20:09-20:09-  1301.6 7523mECoRBhadrak, Odisha
4.13MZZManjuri Road  20:15-20:15-  1308.5 7528mECoRBhadrak, Odisha
4.14DLPTDulakhapatna  20:18-20:18-  1312.4 7527mECoRBandalo, Odisha
4.15BTVBaitarani RoadX  20:23-20:23-  1317.9 7527mECoRBaitarani, Odisha
4.16KRIHKorai Halt  20:28-20:28-  1324.8 7530mECoRJajapur, Odisha
5JJKRJajpur Keonjhar Road (4)  20:32+3820:33+441m--1329.87636mECoRJajpur, Odisha
5.1JKPRJakhapura  20:39-20:39-  1337.5 7619mECoRJajpur, Odisha
5.2BRMIBrahamani Ph  20:44-20:44-  1343.2 7622mECoRNational Highway 200, Odisha
5.3JENJenapur  20:45-20:45-  1345.4 7623mECoRNational Highway 200, Odisha
5.4NGMPNew Garh Madhopur  20:50-20:50-  1351.3 7628mECoRGarh Madhopur, Odisha
5.5HDSHaridaspur  20:58-20:58-  1361.1 7630mECoRDhanmandal, Odisha
5.6DNMDhanmandal (3)  21:02-21:02-  1366.3 7638mECoRDhanmanda, Odisha
5.7BRTGBarithengarh  21:07-21:07-  1372.7 7625mECoRCuttack, Odisha
5.8BYYByree  21:10-21:10-  1377.1 7633mECoRBairi, Odisha
5.9SJDRSri Jhadeshwar RoadX  21:14-21:14-  1381.1 7630mECoRNational Highway 5, Odisha
5.10KISKapilas Road Junction  21:18-21:18-  1386.9 7624mECoRTangi, Odisha
5.11NRGNergundiX  21:22-21:22-  1391.1 7626mECoRCuttack District, Odisha
5.12KNPRKendrapara Road  21:27-21:27-  1397.7 7629mECoRKendrapara Road, Odisha
6CTCCuttack Junction (5)  21:30+3721:32+392m--1401.85128mECoRCuttack, Odisha
6.1KTJIKatha Jori  21:34-21:34-  1403.4 5128mECoRCuttack, Odisha
6.2GBKGopalpur Balkuda  21:37-21:37-  1406.2 5128mECoRGopalpur, Odisha
6.3BRAGBarang  21:46-21:46-  1413.9 5127mECoRDist - Cuttack, Odisha
6.4BBSNBhubaneswar New  21:52-21:52-  1419.0 5132mECoRBhubaneshwar, Odisha
6.5PTABPatia P.H.  21:53-21:53-  1419.9 5130mECoRBhubaneshwar, Odisha
6.6MCSMancheswarX  21:57-21:57-  1422.8 5127mECoRMancheswar, Odisha
6.7BNBHBani Bihar (2)  22:01-22:01-  1426.2 5138mECoRBhubaneswar, Odisha
7BBSBhubaneswar (4)X  22:05+5522:10+555m--1429.64540mECoRBhubaneshwar, Odisha
7.1LGTRLingaraj Temple Road  22:16-22:16-  1434.1 4539mECoRBhubaneswar, Odisha
7.2SRKTSarkantra  22:19-22:19-  1436.4 4519mECoRBhubaneswar, Odisha
7.3RTNRetangX  22:25-22:25-  1441.2 4519mECoRKhurdha, Odisha
8KURKhurda Road Junction (7)  22:35+5822:45+5710m--1448.68425mECoRKhordha, Odisha
8.1ARGLArgul P.H.  22:49-22:49-  1453.9 8424mECoRKhordha, Odisha
8.2KPXRKaipadar RoadX  22:52-22:52-  1457.9 8422mECoRKaipada Road, Odisha
8.3DLMHDhaulimuhan  22:55-22:55-  1462.4 8421mECoRKhordha, Odisha
8.4TAPTapang  22:58-22:58-  1466.2 8415mECoRKhordha, Odisha
8.5GLBAGolabai  23:01-23:01-  1471.0 8413mECoRKhordha, Odisha
8.6NKPNirakarpur  23:04-23:04-  1475.0 8421mECoRNirakarpur, Odisha
8.7BSDPBhusandpur  23:09-23:09-  1482.1 8420mECoRBhushandapur, Odisha
8.8MKTPMuketashwar  23:13-23:13-  1487.6 8413mECoRKhordha, Odisha
8.9KAPGKalupara Ghat  23:16-23:16-  1492.0 8410mECoRChandeswar, Odisha
8.10KUUKuhuri  23:21-23:21-  1498.7 8426mECoRKhordha, Odisha
8.11GNGDGangadharpurX  23:26-23:26-  1506.7 8422mECoRKhordha, Odisha
8.12SLZSolari  23:30-23:30-  1511.8 8418mECoRSolari, Odisha
8.13BALUBalugaon (3)  23:36-23:36-  1519.6 8411mECoR752030, Odisha
8.14CLKAChilka  23:41-23:41-  1526.9 8425mECoRBarkul, Odisha
8.15KLJIKalijai  23:45-23:45-  1532.0 8411mECoRGarh, Odisha
8.16KITKhallikot (3)  23:48-23:48-  1536.9 8413mECoRKhallikot, Odisha
8.17RBARambha  23:56-23:56-  1548.1 8414mECoRGanjam District, Odisha
8.18HMAHummaX  00:04-00:04-  2559.1 8419mECoRGanjam District, Odisha
8.19GAMGanjam  00:08-00:08-  2565.4 848mECoRGanjam, Odisha
8.20CAPCChatrapur Court (2)  00:14-00:14-  2573.3 8432mECoRChatrapur, Odisha
8.21CAPChatrapur  00:15-00:15-  2574.2 8436mECoRChatrapur, Odisha
8.22NRSPNarasimhapura  00:17-00:17-  2578.0 8450mECoRGanjam, Odisha
8.23JNPJagan Nathapur  00:24-00:24-  2587.0 8429mECoRBerhampur, Odisha
9BAMBrahmapur (3)X  00:30+3700:40+3710m--2595.78227mECoRBerhampur, Odisha
9.1GTAGolanthra  00:48-00:48-  2606.4 8228mECoRGanjam, Odisha
9.2SLRDSurla Road  00:52-00:52-  2611.7 8218mECoRGanjam, Odisha
9.3IPMIchchapuramX  00:58-00:58-  2620.2 8221mECoRIchchapuram, Andhra Pradesh
9.4JPIJhadupudi  01:06-01:06-  2632.0 8238mECoRSrikakulam, Andhra Pradesh
10SPTSompeta (4)X  01:11+1401:12+141m--2638.26948mECoRKanchili, Andhra Pradesh
10.1BAVBaruva  01:20-01:20-  2647.6 6917mECoRSrikakulam, Andhra Pradesh
10.2MMSMandasa Road  01:28-01:28-  2657.0 6938mECoRSrikakulam, Andhra Pradesh
10.3SUDVSummadevi  01:34-01:34-  2663.5 6958mECoRSummadevi, Andhra Pradesh
10.4PSAPalasa (3)  01:40-01:40-  2670.0 6931mECoRKasibugga, Andhra Pradesh
10.5PUNPundi  01:50-01:50-  2682.3 6938mECoRSrikakulam, Andhra Pradesh
10.6RMZRouthpuram HaltX  01:56-01:56-  2688.6 6912mECoRSrikakulam, Andhra Pradesh
10.7NWPNaupada Junction  02:02-02:02-  2695.8 6913mECoRNuapada . ph.no. 08945-249728, Andhra Pradesh
10.8DGBDindu Gopala Puram Halt  02:07-02:07-  2701.6 698mECoRPundi Rd, Andhra Pradesh
10.9KBMKotabommaliX  02:14-02:14-  2709.6 6913mECoRSrikakulam, Andhra Pradesh
10.10HCMHarishchandrapuram  02:21-02:21-  2717.8 6928mECoRNational Highway 5, Andhra Pradesh
10.11TIUTilaru (4)  02:26-02:26-  2723.3 6950mECoRSrikakulam District, Andhra Pradesh
10.12ULMUrlam  02:34-02:34-  2733.0 6919mECoRSrikakulam, Andhra Pradesh
11CHESrikakulam Road (4)  02:43+1:0602:45+1:062m--2743.07234mECoRsrikakulam road ph .no. 08942-287222, Andhra Pradesh
11.1DUSIDusi  02:50-02:50-  2749.5 7228mECoRSrikakulam, Andhra Pradesh
11.2PDUPonduru  02:58-02:58-  2758.3 7239mECoRSrikakulam, Andhra Pradesh
11.3SGDMSigadam  03:06-03:06-  2768.4 7267mECoRSrikakulam, Andhra Pradesh
11.4BTVABatuva  03:13-03:13-  2776.8 72103mECoRKapusambham, Andhra Pradesh
11.5CPPChipurupalle  03:17-03:17-  2781.7 7299mECoRCheepurupalli, Andhra Pradesh
11.6GVIGarividi  03:23-03:23-  2788.2 7292mECoRGarividi Railway Station Rd, Andhra Pradesh
11.7GULGujjangivalasa  03:28-03:28-  2794.0 7267mECoRGujjangivalasa, Odisha
11.8NMLNellimarlaX  03:34-03:34-  2801.3 7237mECoRCoastal Andhra Region, Andhra Pradesh
12VZMVizianagaram Junction (5)  03:43+1:0903:45+1:092m--2812.56763mECoRVizianagaram, Andhra Pradesh
12.1KUKKorukondaX  03:55-03:55-  2823.2 6738mECoRKorukonda, Andhra Pradesh
12.2ALMAlamandaX  04:01-04:01-  2830.3 6751mECoRAlamanda Road, Andhra Pradesh
12.3KPLKantakapalle  04:09-04:09-  2839.6 6779mECoRKantakapalle, Andhra Pradesh
12.4KTVKottavalasa Junction (5)X  04:16-04:16-  2847.5 6758mECoRVizianagaram District, Andhra Pradesh
12.5PDTPendurti (7)  04:24-04:24-  2856.4 6727mECoRVisakhapatnam, Andhra Pradesh
12.6SCMNSimhachalam North (5)  04:31-04:31-  2864.2 6720mECoRVishakhapatnam, Andhra Pradesh
12.7SCMSimhachalam (2)X  04:33-04:33-  2865.6 6727mECoRVisakhapatnam, Andhra Pradesh
12.8MIPMMarripalem (2)  04:36-04:36-  2869.0 6717mECoRVishakhapatnam, Andhra Pradesh
13VSKPVisakhapatnam Junction (8)X04:40+1:2105:00+1:2120m32873.77511mECoRVishakhapatnam 530001, Andhra Pradesh
13.1MIPMMarripalem (2)  05:04-05:04-  2878.2 7517mECoRVishakhapatnam, Andhra Pradesh
13.2GPTGopalapatnamX  05:08-05:08-  2884.3 759mECoRVisakhapatnam, Andhra Pradesh
13.3DVDDuvvada (4)  05:13-05:13-  2890.0 7546mECoRVishakhapatnam District, Andhra Pradesh
13.4THYThadiX  05:21-05:21-  2899.8 7539mSCRKonda Koppaka, Andhra Pradesh
13.5AKPAnakapalle (3)X  05:26-05:26-  2906.0 7530mSCRAnakapalle ph.no . 08924-221698, Andhra Pradesh
13.6KSKKasimkotaX  05:30-05:30-  2911.4 7538mSCRVisakhapatnam District, Andhra Pradesh
13.7BVMBayyavaram  05:33-05:33-  2915.3 7538mSCRCoastal Andhra Region, Andhra Pradesh
13.8NASPNarasingapalli  05:39-05:39-  2922.7 7520mSCRVishakhapatnam, Andhra Pradesh
13.9YLMElamanchili (2)X  05:45-05:45-  2929.8 7523mSCRVisakhapatnam District, Andhra Pradesh
13.10REGRegupalemX  05:51-05:51-  2938.2 7526mSCRVisakhapatnam District, Andhra Pradesh
13.11NRPNarsipatnam Road (2)  05:59-05:59-  2947.5 7518mSCRVisakhapatnam District, Andhra Pradesh
13.12GLUGullipadu  06:08-06:08-  2958.7 7530mSCRVisakhapatnam District, Andhra Pradesh
13.13TUNITuni (2)X  06:16-06:16-  2969.8 7524mSCRTuni ph.no. 08854-252172, Andhra Pradesh
13.14HVMHamsavaram  06:23-06:23-  2978.2 7547mSCRHamsavaram, Andhra Pradesh
13.15TMPMTimmapuramX  06:27-06:27-  2982.7 7528mSCRNational Highway 5, Andhra Pradesh
13.16ANVAnnavaram (3)  06:30-06:30-  2986.5 7527mSCREast Godavari District, Andhra Pradesh
13.17RVDRavikampadu  06:35-06:35-  2993.4 7527mSCREast Godavari District, Andhra Pradesh
13.18DGDGDurgada Gate  06:37-06:37-  2996.3 7523mSCREast Godavari, Andhra Pradesh
13.19MVRMMallavaram  06:41-06:41-  21000.4 7514mSCRChebrolu, Andhra Pradesh
13.20GLPGollaprolu  06:45-06:45-  21005.5 7519mSCRGollaprollu, Andhra Pradesh
13.21PAPPithapuram (2)  06:49-06:49-  21011.3 7522mSCREast Godavari District, Andhra Pradesh
13.22CRPMChandrampalemX  06:53-06:53-  21015.8 7515mSCRKandarada Road, Andhra Pradesh
14SLOSamalkot Junction (3)  06:59+1:4807:00+1:491m--21023.36118mSCRSamalkot, Andhra Pradesh
14.1GDPTGudapartiX  07:04-07:04-  21027.9 6121mSCRVetlapalem, Andhra Pradesh
14.2MPUMedapadu  07:09-07:09-  21032.3 6120mSCRMedapadu, Andhra Pradesh
14.3PBDPeddabrahmadevamX  07:11-07:11-  21034.8 6116mSCRPedabramadvam, Andhra Pradesh
14.4BVLBikkavolu  07:17-07:17-  21040.5 6116mSCREast Godavari District, Andhra Pradesh
14.5BBPMBalabhadrapuram  07:20-07:20-  21043.8 6123mSCRBalabhadhrapuram, Andhra Pradesh
14.6APTAnaparti (3)  07:26-07:26-  21049.8 6121mSCREast Godavari District, Andhra Pradesh
14.7DWPDwarapudi (3)  07:30-07:30-  21053.6 6120mSCREast Godavari District, Andhra Pradesh
14.8KSVMKesavaram  07:34-07:34-  21057.9 6116mSCRKesavaram, Andhra Pradesh
14.9KYMKadiyam (1)X  07:39-07:39-  21063.5 6115mSCREast Godavari, Andhra Pradesh
15RJYRajahmundry (3)X  07:49+1:4807:51+1:492m--21073.58323mSCRRajahmundry ph.no. 0883-2420541, Andhra Pradesh
15.1GVNGodavariX  07:53-07:53-  21076.5 8324mSCRRajahmundry, Andhra Pradesh
15.2KVRKovvur (3)  07:57-07:57-  21081.3 8325mSCRWest Godavari, Andhra Pradesh
15.3PSDAPasivedala (2)X  07:59-07:59-  21084.4 8322mSCRWest Godavari District, Andhra Pradesh
15.4CUChagallu  08:01-08:01-  21087.9 8318mSCRWest Godavari, Andhra Pradesh
15.5BMGMBrahmanagudem (2)XO  08:05-08:05-  21092.2 8318mSCRNidadavolu, Andhra Pradesh
15.6NDDNidadavolu Junction (3)  08:07-08:07-  21095.7 8320mSCRNidadavolu jtn ph.no. 08813-210325, Andhra Pradesh
15.7MRPLMarampalliX  08:13-08:13-  21103.3 8317mSCRMarampalli Rd, Andhra Pradesh
15.8NBMNavabpalem  08:15-08:15-  21106.6 8316mSCRWest Godavari District, Andhra Pradesh
15.9PTPUPrattiapaduX  08:18-08:18-  21110.3 8316mSCRApparaopeta Rd, Andhra Pradesh
15.10TDDTadepalligudem (3)X  08:21-08:21-  21115.7 8318mSCRTadepalligudem, Andhra Pradesh
15.11BPYBadampudi  08:26-08:26-  21121.6 8320mSCRBadampudi, Andhra Pradesh
15.12VGTUnguturuO  08:30-08:30-  21127.0 8317mSCRUnguturu, Andhra Pradesh
15.13CELChebrol  08:32-08:32-  21129.9 8318mSCRWest Godavari District, Andhra Pradesh
15.14KKRMKaikaramX  08:34-08:34-  21133.4 8319mSCRKaikaram, Andhra Pradesh
15.15PUAPulla  08:37-08:37-  21137.7 8315mSCRPulla, Andhra Pradesh
15.16BMDBhimadolu (3)  08:42-08:42-  21144.4 8314mSCRBhimadolu, Andhra Pradesh
15.17STPTSitampet  08:46-08:46-  21150.0 8320mSCREGK Rd, Andhra Pradesh
15.18DELDenduluru  08:49-08:49-  21153.7 8321mSCRWest Godavari, Andhra Pradesh
16EEEluru (3)  08:56+2:0408:57+2:051m--21163.43519mSCREluru Ph.no. 08812 226401., Andhra Pradesh
16.1PRHPowerpet (2)  09:00-09:00-  21164.9 3520mSCREluru, Andhra Pradesh
16.2VATVatlurX  09:12-09:12-  21171.9 3516mSCREluru, Andhra Pradesh
16.3NZDNuzvid (3)X  09:29-09:29-  21181.7 3528mSCRHanuman Junction, Andhra Pradesh
16.4VRVLViravalliO  09:40-09:40-  21188.2 3521mSCRViravalli, Andhra Pradesh
16.5TOUTelaproluX  09:45-09:45-  21191.3 3520mSCRKrishna, Andhra Pradesh
16.6PAVPPedda AvutapaleX  09:58-09:58-  21198.3 3525mSCRPedda Avutapalle, Andhra Pradesh
16.7GWMGannavaram  10:06-10:06-  21203.0 3524mSCRGannavaram, Andhra Pradesh
16.8MBDMustabada  10:18-10:18-  21209.9 3520mSCRKrishna, Andhra Pradesh
16.9GALAGunadala  10:30-10:30-  21216.8 3519mSCRGunadala Rd, Andhra Pradesh
17BZAVijayawada Junction (10)X  10:40+1:3511:00+1:3220m721222.87324mSCRVijayawada 520001, Andhra Pradesh
17.1KCCKrishna Canal Junction (6)X  11:04-11:04-  21227.5 7321mSCRTadepalli, Andhra Pradesh
17.2KAQKolanukonda (1)  11:07-11:07-  21230.9 7322mSCRNational Highway 5, Andhra Pradesh
17.3PVDPeddavadiapudi (3)  11:10-11:10-  21234.7 7320mSCRKL University to NH 5, Andhra Pradesh
17.4CLVRChiluvur  11:13-11:13-  21238.5 7320mSCRChiluvuru, Andhra Pradesh
17.5MODMorampudi  11:15-11:15-  21241.0 7316mSCRMorampudi, Andhra Pradesh
17.6DIGDuggirala (3)  11:18-11:18-  21244.4 7316mSCRDuggirala, Andhra Pradesh
17.7KLXKolakalurX  11:21-11:21-  21248.0 7315mSCRNandivelugu Rd, Andhra Pradesh
17.8TELTenali Junction (5)X  11:26-11:26-  21254.1 7316mSCRTel: 08644-227834, Andhra Pradesh
17.9VRUValiveruX  11:32-11:32-  21261.4 7310mSCRValiveru Railway Gate, Andhra Pradesh
17.10TSRTsunduru (3)  11:35-11:35-  21265.6 7312mSCRTsunduru, Andhra Pradesh
17.11MDKUModukuru (2)  11:38-11:38-  21269.2 7310mSCRModukuru, Andhra Pradesh
17.12NDONidubrolu (3)X  11:44-11:44-  21276.1 739mSCRNidubrolu, Andhra Pradesh
17.13MCVMMachavaramO  11:48-11:48-  21281.1 737mSCRMachavaram, Andhra Pradesh
17.14APLAppikatla (2)X  11:53-11:53-  21287.9 737mSCRGBC Rd, Andhra Pradesh
17.15BPPBapatla (3)XO  12:00-12:00-  21296.7 7310mSCRBapatla, Andhra Pradesh
17.16SPFStuartpuram  12:06-12:06-  21303.5 739mSCRBapatla West Rural, Andhra Pradesh
17.17IPPMIpurupalem  12:09-12:09-  21307.5 738mSCRIpurupalem, Andhra Pradesh
17.18IPPNIpurupalem Halt (1)  12:09-12:09-  21307.6 738mSCRIpurupalem, Andhra Pradesh
17.19CLXChirala (4)  12:13-12:13-  21311.7 738mSCRChirala, Andhra Pradesh
17.20JAQJandrapeta (2)  12:15-12:15-  21314.9 739mSCRChirala, Andhra Pradesh
17.21VTMVetapalem (3)  12:19-12:19-  21319.6 738mSCRVetapalem, Andhra Pradesh
17.22KPLLKottapandillapalli (2)  12:22-12:22-  21323.1 738mSCRNH 214A, Andhra Pradesh
17.23KVDUKadavakuduru (2)  12:25-12:25-  21327.4 738mSCRKadavakuduru, Andhra Pradesh
17.24CJMChinnaganjam (3)X  12:29-12:29-  21332.0 739mSCRChinna Ganjam, Andhra Pradesh
17.25UGDUppugunduru (2)  12:35-12:35-  21338.5 735mSCRUppugundur Machavaram Rd, Andhra Pradesh
17.26RPRLRaparla Halt (2)  12:38-12:38-  21342.9 739mSCRNH 214A, Andhra Pradesh
17.27ANBAmmanabrolu (3)X  12:41-12:41-  21346.2 7316mSCRAmmanabrolu, Andhra Pradesh
17.28KRVKaravadi (2)  12:46-12:46-  21352.5 7311mSCRKaravadi, Andhra Pradesh
18OGLOngole (3)X  12:53+1:4412:54+1:461m321361.19612mSCROngole, Andhra Pradesh
18.1SDMSurareddipalem (3)  13:00-13:00-  21371.4 969mSCRSurareddy Palem, Andhra Pradesh
18.2TNRTanguturu (2)  13:06-13:06-  21379.7 9610mSCRTanguturu, Andhra Pradesh
18.3SKMSingarayakonda (3)O  13:12-13:12-  21389.3 9626mSCRSingarayakonda, Andhra Pradesh
18.4UPDUlavapadu (2)X  13:18-13:18-  21398.9 9613mSCRUlavapadu, Andhra Pradesh
18.5TTUTettu (2)X  13:26-13:26-  21412.8 9624mSCRNational Highway 5, Andhra Pradesh
18.6KVZKavali (4)  13:35-13:35-  21427.1 9621mSCRKavali, Andhra Pradesh
18.7SVPMSri Venkateswarapalem (2)  13:43-13:43-  21439.4 9622mSCRNational Highway 5, Andhra Pradesh
18.8BTTRBitragunta (2)  13:46-13:46-  21443.5 9615mSCRBitragunta, Andhra Pradesh
18.9AXRAlluru RoadX  13:50-13:50-  21450.1 968mSCRNational Highway 5, Andhra Pradesh
18.10TMCTalamanchi  13:57-13:57-  21461.6 9615mSCRNational Highway 5, Andhra Pradesh
18.11KJJKodavaluru (2)  14:00-14:00-  21466.3 9617mSCRNational Highway 5, Andhra Pradesh
18.12PGUPadugupadu (3)  14:04-14:04-  21473.8 9621mSCRKovur, Andhra Pradesh
19NLRNellore (4)  14:07+1914:08+191m321477.82721mSCRNellore, Andhra Pradesh
19.1NLSNellore South (2)  14:12-14:12-  21479.8 2722mSCRNellore, Andhra Pradesh
19.2VDEVedayapalem (2)X  14:24-14:24-  21485.1 2727mSCRNellore, Andhra Pradesh
19.3VKTVenkatachalam (3)O  14:45-14:45-  21494.4 2726mSCRVenkatachelam, Andhra Pradesh
19.4KMLPKommarapudi (2)  14:59-14:59-  21501.1 278mSCRNational Highway 5, Andhra Pradesh
19.5MBLManubolu (3)  15:12-15:12-  21506.8 2722mSCRManubolu Railway Station, Andhra Pradesh
20GDRGudur Junction (3)  15:33+1:1515:35+1:152m121516.37119mSCRGudur, Andhra Pradesh
20.1KQAKondagunta (1)  15:43-15:43-  21526.1 7153mSCRNellore, Andhra Pradesh
20.2VDDVendodu (2)  15:51-15:51-  21535.5 7155mSCRNellore, Andhra Pradesh
20.3NDZNidigallu (2)  15:58-15:58-  21544.1 7155mSCRSiddavaram, Andhra Pradesh
20.4VKIVenkatagiri (3)X  16:05-16:05-  21552.1 7177mSCRNellore District, Andhra Pradesh
20.5YALYataluru  16:10-16:10-  21558.5 7178mSCRCoastal Andhra Region, Andhra Pradesh
20.6YLKYellakaru (1)  16:15-16:15-  21564.3 7173mSCRCoastal Andhra Region, Andhra Pradesh
20.7AKYAkkurti (2)  16:22-16:22-  21571.8 7169mSCRSrikalahasti, Andhra Pradesh
20.8KHTSri Kalahasti (2)  16:26-16:26-  21576.5 7168mSCRChittoor District, Andhra Pradesh
20.9RCGRachagunnariX  16:31-16:31-  21583.5 7182mSCRRayalaseema Region, Andhra Pradesh
20.10YPDYerpedu (2)  16:37-16:37-  21589.8 7180mSCRChittoor, Andhra Pradesh
21RURenigunta Junction (5)  16:45+1:3916:55+1:3910m--21599.740113mSCRChittoor District, Andhra Pradesh
21.1TCNRTiruchanur  17:00-17:00-  21602.8 40126mSCRTirupati, Andhra Pradesh
22TPTYTirupati Main (5)  17:10+1:4117:12+1:492m--21609.656150mSCRChittoor Distt, Andhra Pradesh
22.1TPWTirupati West Halt (1)X  17:14-17:14-  21611.2 56160mSCRTirupati, Andhra Pradesh
22.2CGIChandragiri (1)  17:25-17:25-  21621.4 56204mSCRNarasingapuram, Andhra Pradesh
22.3KENKotalaX  17:27-17:27-  21623.2 56219mSCRRayalaseema Region, Andhra Pradesh
22.4MNPTMungilipattu  17:35-17:35-  21631.3 56257mSCRChittoor-Tirupati Rd, Andhra Pradesh
22.5PAMPanapakam (1)X  17:42-17:42-  21637.7 56281mSCRChittoor District, Andhra Pradesh
22.6PAKPakala Junction (3)  17:57-17:57-  21651.5 56371mSCRKavalivari Palle, Andhra Pradesh
22.7PTTPutalapattu  18:09-18:09-  21662.4 56330mSCRRayalaseema Region, Andhra Pradesh
22.8RVSNRVS Nagar  18:21-18:21-  21673.7 56307mSCRRVS Nagar, Andhra Pradesh
23CTOChittoor (3)  18:29+1:4218:30+1:421m--21681.531305mSCR517001., Andhra Pradesh
23.1SIESiddampalliX  18:45-18:45-  21689.2 31307mSCRRayalaseema Region, Andhra Pradesh
23.2PYXPeyanapalli  18:51-18:51-  21692.5 31300mSCRRayalaseema Region, Andhra Pradesh
23.3RAMRamapuram (2)  19:03-19:03-  21698.5 315mSCRRamapuram, Andhra Pradesh
23.4BUMBommasamudram  19:14-19:14-  21704.7 31243mSCRNH 4, Andhra Pradesh
24KPDKatpadi Junction (5)X  19:33+1:1419:35+1:152m321714.582213mSRVellore 632007, Tamil Nadu
24.1LTILatteri  19:41-19:41-  21722.5 82237mSRSH 59, Tamil Nadu
24.2VJVirinchipuram  19:44-19:44-  21727.0 82237mSRSH 59, Tamil Nadu
24.3KVNKavanur  19:49-19:49-  21733.1 82250mSRSH 59, Tamil Nadu
24.4GYMGudiyattam (3)X  19:53-19:53-  21739.0 82269mSRVellore, Tamil Nadu
24.5MEHMelalathur  19:57-19:57-  21744.0 82275mSRSH 130, Tamil Nadu
24.6VLTValathoorXO  20:00-20:00-  21749.1 82284mSRSH 130, Tamil Nadu
24.7MPIMelpatti  20:05-20:05-  21754.8 82290mSRSH 130, Tamil Nadu
24.8PCKMPachachakupam  20:09-20:09-  21760.8 82307mSRNH 46, Tamil Nadu
24.9ABAmburXO  20:13-20:13-  21766.7 82330mSRAmbur, Tamil Nadu
24.10VGMVinnamangalam  20:19-20:19-  21774.6 82340mSRNH 46, Tamil Nadu
24.11VNVaniyambadi  20:25-20:25-  21782.9 82357mSRVaniyambadi, Tamil Nadu
24.12KDYKettandapatti  20:31-20:31-  21791.3 82378mSRNH 46, Tamil Nadu
24.13JTJJolarpettai Junction (5)  20:37-20:37-  21798.4 82405mSRJolarpettai, Tamil Nadu
24.14TPTTirupattur (2)  20:42-20:42-  21805.5 82392mSRTirupattur ph.no. 04179-220062, Tamil Nadu
24.15MOLKMolakarampatti  20:45-20:45-  21810.0 82377mSRSH-60 Dharmapuri Rd, Tamil Nadu
24.16KEYKagankaraiX  20:50-20:50-  21816.6 82380mSRKagankarai ph.no.04179-204191, Tamil Nadu
24.17KNNTKunnathur  20:54-20:54-  21822.6 82372mSRPuduchery Rd, Tamil Nadu
24.18SLYSamalpatti  20:59-20:59-  21828.7 82388mSRSamalpatti ph.no. 04341-245601, Tamil Nadu
24.19DSTDasampatti  21:05-21:05-  21837.4 82404mSRDasampatti Ph.no.04341-244585, Tamil Nadu
24.20DPIDoddampatti  21:11-21:11-  21845.5 82374mSRDoddampatti ph.no.04346-262222, Tamil Nadu
24.21MAPMorappur  21:17-21:17-  21852.8 82402mSRDharmapuri District, Tamil Nadu
24.22TNGRThonganur  21:21-21:21-  21859.0 82435mSRThonganu, Tamil Nadu
24.23BDYBuddireddippati  21:26-21:26-  21865.4 82442mSRBuddireddippati ph.no.04346-265908, Tamil Nadu
24.24BQIBommidiX  21:33-21:33-  21875.3 820mSRBommidi ph.no. 04346-244441, Tamil Nadu
24.25LCRLokur  21:41-21:41-  21885.5 82456mSRLokur ph.no .04290-294547, Tamil Nadu
24.26DSPTDanishpet  21:47-21:47-  21894.8 82382mSRDanishpet Ph.no. 04290-242583, Tamil Nadu
24.27TNTTinnappatti  21:53-21:53-  21901.9 82331mSRTinnappatti ph.no.04290-249103, Tamil Nadu
24.28KPPRKaruppur  22:00-22:00-  21912.0 82314mSRKaruppur ph.no. 0427-2345921, Tamil Nadu
24.29MGSJMagnesite JunctionX  22:03-22:03-  21915.2 82313mSRSalem, Tamil Nadu
25SASalem Junction (6)  22:05+1:3122:10+1:315m--21918.653283mSRSalem, Tamil Nadu
25.1NEANeykkarapatti  22:18-22:18-  21925.7 53261mSRUthamasolapuram, Tamil Nadu
25.2VRPDVirapandy RoadX  22:22-22:22-  21928.7 53270mSRVirapandy, Tamil Nadu
25.3DVBHMakudan Virapandi Block Hut  22:27-22:27-  21933.1 53273mSRPeriya Seeragapadi, Tamil Nadu
25.4DCMagudanchavadiX  22:34-22:34-  21939.5 53241mSRMagudanchavadi, Tamil Nadu
25.5MVPMMavelipalaiyamX  22:48-22:48-  21952.1 53294mSRNH 47, Tamil Nadu
25.6SGESankaridurgX  22:54-22:54-  21957.2 53271mSRSankaridurg ph.no.04283-261235, Tamil Nadu
25.7ANUAnangur  23:03-23:03-  21964.7 53218mSRAnangur ph.no.04288-274811, Tamil Nadu
25.8CVKaveriX  23:14-23:14-  21975.1 53165mSRCaveri ph.no.04288-240741, Tamil Nadu
26EDErode Junction (4)  23:20+1:4923:25+1:515m221980.063175mSRErode ph.no: 0424-2256111, Tamil Nadu
26.1TPMTotiyapalayam (2)X  23:31-23:31-  21986.4 63216mSRErode, Tamil Nadu
26.2PYPerundurai  23:38-23:38-  21993.6 63261mSRPerundurai ph.no. 04294-220545, Tamil Nadu
26.3IGRIngur  23:43-23:43-  21999.1 63282mSRErode, Tamil Nadu
26.4VZVijayamangalam  23:51-23:51-  22006.9 63281mSRErode, Tamil Nadu
26.5UKLUttukuli (2)  00:00-00:00-  32016.4 63300mSRUthukuli ph.no. 04294-260213, Tamil Nadu
26.6KUYTiruppur KulipalayamX  00:03-00:03-  32019.8 63292mSRTiruppur Dist, Tamil Nadu
27TUPTiruppur (2)X  00:13+1:3100:15+1:312m132030.250305mSRTiruppur. Ph:0421-2200450, Tamil Nadu
27.1VNJTiruppur Vanjipalayam (3)X  00:25-00:25-  32038.4 50317mSRTiruppur Dist, Tamil Nadu
27.2SNOTiruppur Somanur (2)X  00:36-00:36-  32047.8 50341mSRTiruppur Dist, Tamil Nadu
27.3SUUSulur Road (2)  00:46-00:46-  32056.4 50364mSRSulur road ph.no .0422-2687264, Tamil Nadu
27.4IGUIrugur Junction (2)  00:54-00:54-  32062.8 50376mSRIrugur ph.no. 04294-230260, Tamil Nadu
27.5SHISinganallur (2)X  00:58-00:58-  32066.4 50390mSRCoimbatore, Tamil Nadu
27.6PLMDPilamedu (3)X  01:04-01:04-  32071.3 50420mSRPilamedu ph.no. 0422-2572333, Tamil Nadu
27.7CBFCoimbatore North (2)  01:11-01:11-  32077.7 50431mSRCoimbatore 641012, Tamil Nadu
28CBECoimbatore Main Junction (6)X  01:15+1:4301:20+1:435m--32080.741416mSRCoimbatore 641001, Tamil Nadu
28.1PTJPodanur Junction (4)X  01:28-01:28-  32086.5 41400mSRPodanur jtn ph.no. 0422-2410784, Tamil Nadu
28.2MDKIMadukarai  01:43-01:43-  32096.4 41344mSRCoimbatore, Tamil Nadu
28.3ETMDEttimadai (2)  01:50-01:50-  32101.6 41313mSREttimadai, Tamil Nadu
28.4WRAWalayarX  02:03-02:03-  32110.4 41213mSRPalakkad, Kerala
28.5CLMDChullimada  02:09-02:09-  32114.8 41178mSRNational Highway 47, Kerala
28.6KJKDKanjikode (2)  02:21-02:21-  32122.7 410mSRPalakkad, Kerala
28.7KTKUKottekad  02:31-02:31-  32129.8 4198mSRPalakkad, Kerala
29PGTPalakkad Junction (4)X  02:40+1:4402:45+1:445m232135.94984mSRPalghat Tel: 0491 2555231, Kerala
29.1PLLParli (2)  02:56-02:56-  32145.0 4963mSRPalakkad, Kerala
29.2MNYMankara (2)X  03:05-03:05-  32152.4 4965mSRPalakkad, Kerala
29.3LDYLakkidi (2)  03:15-03:15-  32160.1 4935mSRPalakkad, Kerala
29.4PLPMPalappuram  03:20-03:20-  32164.2 4942mSRKayarampara-Meetna Rd, Kerala
29.5OTPOttappalam (2)  03:24-03:24-  32167.7 4930mSROttapalam, Kerala
29.6MNURMannanur (2)  03:33-03:33-  32174.8 4933mSRVaniamkulam Mannanur Rd, Kerala
30SRRShoranur Junction (7)03:40+1:5503:50+2:0310m532180.66926mSRShoranur ph.no 0466-2222913, Kerala
30.1SRRBShoranur B-Cabin  03:50-03:50-  32180.9 6928mSRShoranur, Kerala
30.2KRKDKarakad (2)X  03:55-03:55-  32186.3 6931mSRKondayur Rd, Kerala
30.3PTBPattambi (2)  04:00-04:00-  32192.1 6921mSRPattambi, Kerala
30.4KODNKodumunda  04:04-04:04-  32196.9 6919mSRThrithala, Kerala
30.5PUMPallippuram  04:08-04:08-  32201.3 695mSRPalakkad, Kerala
30.6PEUPerssannur  04:12-04:12-  32206.6 6916mSRKoodallur, Kerala
30.7KTUKuttippuram (2)  04:16-04:16-  32210.6 6917mSRKuttippuram, Kerala
30.8TUATirunnavaya (2)  04:22-04:22-  32217.0 6910mSRThirunavaya, Kerala
31TIRTirur (3)  04:29+2:0804:30+2:091m--32225.6499mSRTel: 0494 2422240, Kerala
31.1TATanur (3)  04:40-04:40-  32233.6 4911mSRMalappuram, Kerala
31.2PGIParappangadi (2)  04:50-04:50-  32241.7 4919mSRParappanangadi, Kerala
31.3VLIVallikunnu (2)  04:56-04:56-  32246.7 4913mSRVallikkunnu, Kerala
31.4KNKadalundi (2)  05:02-05:02-  32252.2 498mSRKozhikode district, Kerala
31.5FKFerok (2)  05:08-05:08-  32256.9 4919mSRFeroke, Kerala
31.6KULKallayi Kozhikode South (2)  05:18-05:18-  32265.1 490mSRCalicut, Kerala
32CLTKozhikode Main (4)  05:20+1:3605:25+1:375m432266.98211mSRCalicut Tel: 0495 2701234, Kerala
32.1VLLVellayil (2)  05:26-05:26-  32268.8 8215mSRCalicut, Kerala
32.2WHWest Hill (2)  05:28-05:28-  32271.4 8210mSRCalicut, Kerala
32.3ETRElattur (3)  05:34-05:34-  32278.7 8213mSRKozhikode district, Kerala
32.4CMCChemancheri (2)  05:39-05:39-  32285.8 8211mSRDist. Kozhikode, Kerala
32.5QLDKoyilandy (3)X  05:43-05:43-  32291.2 8211mSRQuilandi, Kerala
32.6VEKVellarakkad  05:47-05:47-  32296.7 8217mSRVellarakkad Railway Station, Kerala
32.7TKTTikkotti (2)X  05:50-05:50-  32300.5 8214mSRThikkodi, Kerala
32.8PYOLPayyoli (2)X  05:52-05:52-  32303.4 8212mSRPayyoli, Kerala
32.9IGLIringal (2)  05:56-05:56-  32309.4 8224mSRKochi - Panavel Rd, Kerala
33BDJVadakara (2)  05:59+1:4906:00+1:511m232313.17011mSRCalicut / Station Ph No : 0496-2524254, Kerala
33.1NAUNadapuram Road  06:05-06:05-  32318.6 7018mSRMadappallly, Kerala
33.2MUKEMukkali  06:08-06:08-  32322.3 7018mSRChombala, Kerala
33.3MAHEMahe (2)  06:11-06:11-  32326.0 7016mSRMahe, Puducherry
33.4JGEJagannath Temple Gate (1)X  06:17-06:17-  32332.9 707mSRKannur District, Kerala
34TLYThalassery (2)  06:19+2:0006:20+2:031m--32335.3319mSRKannur, Kerala
34.1DMDDharmadam (1)  06:29-06:29-  32339.7 3114mSRKannur District, Kerala
34.2ETKEdakkad (3)  06:36-06:36-  32343.5 3112mSRNH 17, Kerala
34.3CSKannur South  06:53-06:53-  32352.3 318mSRKannur, Kerala
35CANKannur Main (3)X  07:00+1:4407:05+1:555m132355.98414mSRKannur Tel: 0497 2705555, Kerala
35.1CQLChirakkal (2)  07:08-07:08-  32360.8 8427mSRKannur district, Kerala
35.2VAPMValapattanam (2)  07:10-07:10-  32362.8 848mSRKannur District, Kerala
35.3PPNSPappinisseri (2)  07:11-07:11-  32364.4 848mSRKannur District, Kerala
35.4KPQKannapuram (2)  07:15-07:15-  32370.4 849mSRKannur District, Kerala
35.5PAZPayangadi (2)  07:21-07:21-  32377.9 8412mSRKannur District, Kerala
35.6ELMEzhimalaX  07:27-07:27-  32386.8 8415mSRKannur District, Kerala
36PAYPayyanur (3)  07:29+1:5207:30+1:521m--32389.6730mSRKannur District, Kerala
36.1TKQTrikkarippurX  07:35-07:35-  32395.8 7313mSRKasargod district, Kerala
36.2CDRAChandera  07:39-07:39-  32400.1 7317mSRKasaragod, Kerala
36.3CHVCharvattur (3)  07:42-07:42-  32404.3 7314mSRKasaragod district, Kerala
36.4NLENileshwar (2)  07:46-07:46-  32409.6 7312mSRNileswaram, Kerala
37KZEKanhangad (3)XO  07:54+1:3107:55+1:311m--32418.97315mSRKanhangad, Kerala
37.1BFRBekal Fort (2)  08:02-08:02-  32427.6 7311mSRPallikere, Kerala
37.2KQKKottikkulam (2)  08:06-08:06-  32432.5 7325mSRBekal, Kerala
37.3KLADKalanad HaltX  08:12-08:12-  32439.1 733mSRKasaragod, Kerala
38KGQKasaragod (3)  08:14+1:4108:15+1:421m--32442.03218mSRTel: 04994 220800, Kerala
38.1KMQKumbala (2)XO  08:38-08:38-  32454.2 3223mSRKumbla, Kerala
38.2UAAUppala (2)  08:56-08:56-  32464.0 3216mSRKasaragod District, Kerala
38.3MJSManjeshwar (3)X  09:09-09:09-  32470.9 3212mSRManjeshwar, Kerala
38.4ULLUllal (2)  09:28-09:28-  32481.2 3226mSRSomeshwar, Karnataka
38.5TKOTTokkottu (1)O  09:31-09:31-  32482.8 328mSRTokkottu, Karnataka
38.6NTVTNethravathi  09:35-09:35-  32485.2 327mSRMangalore City, Karnataka
39MAQ•Mangalore Central (4)•  09:40+1:17---32487.7-14mSRMangalore 575001, Karnataka
Scroll to Top
Scroll to Bottom